Printer-friendly version

IAU Minor Planet Center

Minor Planet Center

MPEC 2007-V105: COMET P/2007 V1 (LARSON)

The following Minor Planet Electronic Circular may be linked-to from your own Web pages, but must not otherwise be redistributed electronically.


Read MPEC 2007-V104 Read MPEC 2007-V106


M.P.E.C. 2007-V105                               Issued 2007 Nov. 13, 17:13 UT

     The Minor Planet Electronic Circulars contain information on unusual
         minor planets and routine data on comets.  They are published
   on behalf of Commission 20 of the International Astronomical Union by the
          Minor Planet Center, Smithsonian Astrophysical Observatory,
                          Cambridge, MA 02138, U.S.A.

             Prepared using the Tamkin Foundation Computer Network

                              MPC@CFA.HARVARD.EDU
          URL http://www.cfa.harvard.edu/iau/mpc.html  ISSN 1523-6714

                           COMET P/2007 V1 (LARSON)

Observations:
    PK07V010  C2007 11 09.24802 03 13 27.12 +30 02 41.2          19.1 T EV105704
    PK07V010  C2007 11 09.25207 03 13 26.83 +30 02 39.7          18.7 T EV105701
    PK07V010  C2007 11 09.26030 03 13 26.45 +30 02 42.1          19.4 T EV105704
    PK07V010  C2007 11 09.27255 03 13 25.85 +30 02 43.2          19.4 T EV105704
    PK07V010  C2007 11 09.27429 03 13 25.77 +30 02 42.2          18.8 T EV105701
    PK07V010  C2007 11 09.28483 03 13 25.28 +30 02 45.1          19.4 T EV105704
    PK07V010  C2007 11 09.29652 03 13 24.75 +30 02 44.8          19.1 T EV105701
    PK07V010  C2007 11 09.29707 03 13 24.58 +30 02 45.1          19.4 T EV105704
    PK07V010  C2007 11 09.31874 03 13 23.64 +30 02 46.8          19.5 T EV105701
    PK07V010  C2007 11 09.86771 03 12 58.01 +30 03 31.0          18.0 N EV105104
    PK07V010  C2007 11 09.87660 03 12 57.55 +30 03 31.9          18.4 N EV105104
    PK07V010  C2007 11 09.88299 03 12 57.27 +30 03 32.5          18.2 N EV105104
    PK07V010  C2007 11 09.89190 03 12 56.87 +30 03 33.4          18.5 N EV105104
    PK07V010  C2007 11 09.97063 03 12 53.36 +30 03 40.0          18.3 N EV105A10
    PK07V010  C2007 11 09.97921 03 12 52.69 +30 03 41.6          18.8 N EV105J47
    PK07V010  C2007 11 09.99850 03 12 51.76 +30 03 43.6          18.7 N EV105J47
    PK07V010  C2007 11 10.00171 03 12 51.61 +30 03 43.9          18.0 N EV105J46
    PK07V010  C2007 11 10.01539 03 12 50.89 +30 03 45.1          18.1 N EV105J47
    PK07V010  C2007 11 10.02741 03 12 50.36 +30 03 46.7          18.4 N EV105J46
    PK07V010  C2007 11 10.09629 03 12 46.84 +30 03 49.6          18.4 T EV105473
    PK07V010  C2007 11 10.10369 03 12 46.48 +30 03 49.6          18.5 T EV105473
    PK07V010  C2007 11 10.11110 03 12 46.13 +30 03 49.8          18.1 T EV105473
    PK07V010  C2007 11 10.42486 03 12 31.45 +30 04 15.3          19.1 N EV105850
    PK07V010  C2007 11 10.44916 03 12 30.21 +30 04 20.4          18.8 N EV105850
    PK07V010  C2007 11 10.45192 03 12 29.99 +30 04 21.1          18.3 N EV105850
    PK07V010  C2007 11 10.46643 03 12 28.84 +30 04 19.3          19.1 N EV105850
    PK07V010  C2007 11 10.85213 03 12 11.61 +30 04 49.5          18.3 N EV105213
    PK07V010  C2007 11 10.85396 03 12 11.50 +30 04 49.9          18.3 N EV105213
    PK07V010  C2007 11 10.85579 03 12 11.41 +30 04 49.9          18.3 N EV105213
    PK07V010  C2007 11 10.89650 03 12 09.78 +30 04 51.5          18.5 N EV105J47
    PK07V010  C2007 11 10.90496 03 12 09.17 +30 04 54.2          18.3 N EV105J47
    PK07V010  C2007 11 11.17686 03 11 56.32 +30 05 13.6          17.8 T EV105673
    PK07V010  C2007 11 11.18288 03 11 55.99 +30 05 14.3                 EV105673
    PK07V010  C2007 11 11.18727 03 11 55.80 +30 05 14.7                 EV105673
    PK07V010  C2007 11 11.19109 03 11 55.62 +30 05 14.9                 EV105673
    PK07V010  C2007 11 11.35878 03 11 47.16 +30 05 25.7          18.4 N EV105850
    PK07V010  C2007 11 11.38119 03 11 46.04 +30 05 26.8          19.5 N EV105850
    PK07V010  C2007 11 11.39631 03 11 45.30 +30 05 28.3          19.2 N EV105850
    PK07V010  C2007 11 11.77806 03 11 27.15 +30 05 53.3                 EV105349
    PK07V010  C2007 11 11.78389 03 11 26.85 +30 05 53.6                 EV105349
    PK07V010  C2007 11 11.78971 03 11 26.58 +30 05 54.3          18.0 T EV105349
    PK07V010  C2007 11 11.87194 03 11 23.36 +30 05 58.5          17.2 N EV105B28
    PK07V010  C2007 11 11.90135 03 11 21.70 +30 06 01.0          17.0 N EV105B28
    PK07V010  C2007 11 11.95127 03 11 19.48 +30 06 07.1          18.6 N EV105J51
    PK07V010  C2007 11 11.95743 03 11 19.16 +30 06 07.1          18.6 N EV105J51

Observer details:
104 San Marcello Pistoiese.  Observers L. Tesi, G. Fagioli, M. Mazzucato,
    F. Dolfi.  Measurers L. Tesi, M. Mazzucato.  0.60-m f/4 reflector + CCD.
213 Observatorio Montcabre.  Observer R. Naves.  Measurer M. Campas.  0.30-m
    f/6 Schmidt-Cassegrain + CCD.
349 Ageo.  Observer K. Kadota.  0.25-m f/5.0 reflector + CCD.
473 Remanzacco.  Observers L. Donato, M. Gonano, V. Gonano, E. Guido,
    V. Santini, G. Sostero.  0.45-m f/4.4 Newtonian reflector + CCD.
673 Table Mountain Observatory, Wrightwood.  Observer J. Young.  0.61-m f/16
    Cassegrain + CCD.
701 Junk Bond Observatory, Sierra Vista.  Observer D. Healy.  0.81-m f/4.4
    Ritchey-Chretien + CCD.
704 Lincoln Laboratory ETS, New Mexico.  Observers M. Bezpalko, D. Torres,
    R. Kracke, G. Spitz, J. Kistler.  Measurers J. Stuart, S. Scruggs.  1.0-m
    f/2.15 reflector + CCD.
850 Cordell-Lorenz Observatory, Sewanee.  Observer D. T. Durig.  0.30-m f/3
    Schmidt-Cassegrain + CCD.
A10 Observatori Astronomic de Corbera.  Observers J. Barcelo, M. Casao,
    F. Morillas, C. Rodriguez.  Measurer J. Barcelo.  0.30-m f/5.0 Newtonian
    reflector + CCD.
B28 Mandi Observatory, Pagnacco.  Observer P. Corelli.  0.45-m f/4.5 reflector
    + CCD.
J46 Observatorio Montana Blanca, Tias.  Observer C. Piret.  0.20-m
    Schmidt-Cassegrain + CCD.
J47 Observatorio Nazaret.  Observer G. Muler.  0.20-m Schmidt-Cassegrain + CCD.
J51 Observatorio Atlante, Tenerife.  Observer J. A. Henriquez.  0.2-m f/9
    Cassegrain + CCD.

Orbital elements:
    P/2007 V1 (Larson)
T 2007 Dec. 8.5645 TT                                   MPC
q   2.676681             (2000.0)            P               Q
n   0.0890222      Peri.   51.4642      +0.5072023      -0.8614144
a   4.967492       Node     8.1890      +0.7209621      +0.4071450
e   0.461161       Incl.   10.7900      +0.4721858      +0.3036417
P  11.1
From 78 observations 2007 Sept. 10-Nov. 11.

Ephemeris:
    P/2007 V1 (Larson)
Date    TT    R. A. (2000) Decl.     Delta      r     Elong.  Phase   m1    m2
2007 11 06    03 15.95   +29 57.1    1.720    2.687   163.9     5.9  17.5
2007 11 16    03 08.11   +30 09.3    1.706    2.682   167.9     4.4  17.4
2007 11 26    03 00.54   +30 08.4    1.719    2.678   162.8     6.3  17.5
2007 12 06    02 54.32   +29 58.0    1.758    2.677   153.5     9.4  17.5
2007 12 16    02 50.30   +29 43.3    1.821    2.677   143.5    12.6  17.6
2007 12 26    02 49.01   +29 29.4    1.905    2.680   133.6    15.4  17.7

Brian G. Marsden             (C) Copyright 2007 MPC           M.P.E.C. 2007-V105

Read MPEC 2007-V104 Read MPEC 2007-V106


Our Web policy. Index to the CBAT/MPC/ICQ pages.


Valid HTML 4.01!